Lapse_Rate
6.4 6.0 6.4 6.9 6.7 6.2 5.9 5.8 5.6 6.4 6.7 5.9 6.1 5.4 5.8 6.5 6.8 7.3 7.5 7.7 7.7 7.7 7.8 7.3 7.4 7.6 7.6 7.5 7.5 7.7 7.6 7.6 7.7 7.6 7.5 7.4 7.2 6.9 6.9 6.9 6.6 6.6 6.4 6.1
5.9 5.7 6.3 6.3 6.2 6.2 6.0 5.6 5.8 5.8 6.3 5.4 5.3 5.0 5.8 6.5 7.1 7.1 7.6 7.8 7.2 7.1 7.5 7.4 7.3 7.2 7.2 7.3 7.5 7.6 7.8 7.7 7.5 7.6 7.6 7.2 7.1 6.9 6.8 6.7 6.6 6.6 6.6 6.3
5.9 5.7 5.8 6.0 5.8 6.1 6.1 5.9 6.2 5.6 5.6 5.3 4.8 4.5 5.3 6.2 6.8 7.1 7.4 7.2 6.9 6.9 7.4 7.3 7.3 7.7 7.7 7.6 7.6 7.4 7.4 7.7 8.0 7.9 7.8 7.6 7.4 7.1 7.1 7.2 7.3 7.0 6.7 6.4
5.9 6.5 6.5 6.2 6.1 6.6 5.5 6.9 6.0 5.7 5.3 4.6 4.4 3.1 4.2 5.7 6.2 6.6 6.2 6.4 6.6 6.6 7.0 7.2 7.3 7.6 7.6 8.0 7.7 7.7 7.4 7.3 7.2 7.6 7.6 7.7 7.7 7.6 7.4 7.1 6.7 6.3 6.3 6.2
6.7 6.9 6.9 6.5 6.7 6.4 6.3 6.5 6.5 6.1 5.7 4.7 4.0 4.0 5.0 5.5 6.7 6.4 6.6 6.7 7.1 7.5 7.5 7.1 6.9 6.8 6.6 6.7 7.0 7.3 7.5 7.7 7.4 7.6 7.6 7.5 7.3 7.4 7.4 7.3 7.1 6.4 5.9 5.7
7.2 7.0 6.8 7.4 7.0 6.6 6.3 6.2 5.9 5.8 5.5 3.9 5.2 5.2 4.6 6.0 6.8 7.2 7.4 8.5 7.8 7.5 7.1 6.6 6.1 6.3 6.4 6.5 6.8 7.1 7.3 7.3 7.4 7.6 7.6 7.5 7.3 7.1 7.2 7.1 7.0 6.6 6.3 6.1
6.7 6.8 6.7 7.1 6.8 6.8 6.9 6.4 5.7 5.0 4.1 4.6 6.1 5.4 5.2 6.6 7.1 6.8 7.3 7.3 6.9 6.9 6.6 6.5 6.5 6.5 6.5 6.6 6.7 6.7 6.8 7.0 7.2 7.1 7.0 6.8 6.7 6.7 6.8 6.8 6.5 6.5 6.4 6.2
6.3 5.7 6.4 6.8 7.0 6.8 6.9 6.9 6.8 5.2 4.7 5.8 6.1 5.3 5.1 5.8 6.1 6.8 6.7 7.0 6.5 6.7 6.8 6.1 6.3 6.8 6.7 6.7 6.9 7.2 7.0 6.8 6.6 6.6 6.5 6.5 6.5 6.2 5.9 5.9 6.1 6.1 5.9 5.7
6.8 5.8 6.3 6.4 6.7 6.8 6.7 6.6 7.2 7.1 7.4 6.0 5.8 5.5 5.6 6.0 6.6 6.4 6.7 6.7 7.1 7.3 7.2 6.8 6.1 6.1 6.6 7.0 7.2 6.6 6.5 6.6 6.8 6.9 6.6 6.1 6.0 6.1 6.3 6.1 5.7 5.5 5.4 5.5
6.7 6.2 6.0 6.4 6.5 6.5 7.1 7.2 6.8 6.5 6.0 6.1 6.5 5.9 5.5 6.1 6.4 6.2 6.5 6.2 6.0 6.0 6.4 6.7 6.6 6.5 6.3 6.5 6.9 7.1 7.4 7.5 7.2 7.0 6.6 6.4 6.3 6.3 6.1 5.9 5.7 5.7 5.5 5.3
6.9 6.8 6.5 6.5 5.9 6.7 6.9 6.8 6.9 7.5 7.6 6.2 6.9 6.9 6.2 6.3 6.3 6.1 5.7 5.4 5.4 5.6 5.7 5.9 5.9 5.8 6.1 6.3 6.5 6.6 6.9 7.4 7.3 7.3 6.9 6.8 6.8 6.4 6.3 6.4 6.5 5.8 5.9 5.9
6.4 6.7 6.7 6.6 6.9 6.7 6.6 7.1 7.5 6.9 6.7 6.3 6.8 6.7 7.3 6.6 6.4 6.5 6.4 6.2 5.7 5.5 5.6 5.6 5.6 5.5 5.7 5.9 6.2 6.3 6.7 6.9 7.1 6.9 6.7 6.8 6.9 6.7 6.6 6.4 6.8 7.1 7.1 7.2
6.8 6.7 6.7 6.7 7.0 7.1 6.5 6.7 6.9 6.9 6.7 6.5 6.5 6.9 7.1 6.8 6.5 6.4 6.3 6.0 5.9 6.4 6.5 6.3 6.4 6.3 6.3 6.1 5.8 5.6 6.3 6.4 6.8 6.6 6.5 6.3 6.4 6.7 6.6 6.7 6.7 6.8 7.1 7.3
6.4 6.6 6.9 6.7 6.9 6.8 6.7 6.9 6.5 6.6 6.6 6.7 6.7 6.8 7.1 7.0 7.1 6.8 6.8 7.0 6.9 6.4 6.1 5.7 5.6 6.0 5.9 5.7 5.4 5.4 5.9 6.4 6.3 6.2 6.1 6.3 6.4 6.4 6.3 6.6 6.5 6.6 6.8 7.3
6.1 6.1 6.3 6.6 6.6 6.5 6.4 6.5 6.7 6.1 5.7 5.6 6.2 6.1 6.7 6.8 7.1 7.4 7.2 6.8 6.6 6.4 6.2 5.6 5.0 5.0 5.1 5.1 5.2 5.3 5.3 5.7 6.1 5.9 6.0 6.1 6.4 6.4 6.7 6.4 6.6 6.6 6.8 6.9
6.1 6.5 6.4 6.3 6.4 6.4 6.0 6.0 6.4 6.5 6.5 6.3 6.4 6.1 6.4 6.6 6.7 6.7 6.7 6.7 6.7 6.7 6.6 6.4 5.7 5.4 5.4 5.6 5.5 5.1 5.0 5.5 6.0 6.2 5.9 5.6 5.8 6.0 6.0 6.3 6.6 6.6 6.7 6.9
5.9 6.1 5.9 6.1 6.2 6.1 5.8 6.4 6.4 6.4 6.8 6.6 6.3 6.5 6.5 6.5 6.4 6.2 6.1 5.8 5.8 6.0 5.9 5.9 5.8 5.4 5.1 5.2 5.1 5.0 4.8 5.0 4.8 5.2 5.8 5.9 5.5 5.6 5.8 6.2 5.9 6.3 6.3 6.5
6.1 6.0 6.0 6.2 6.1 6.1 6.3 6.5 6.5 6.5 6.5 6.5 6.3 6.3 6.1 5.8 5.7 5.7 5.6 5.7 5.6 5.3 5.2 5.3 5.4 5.5 5.5 5.1 4.7 4.5 4.3 4.4 4.7 5.0 5.3 5.6 5.7 5.4 5.3 5.3 5.2 5.4 5.6 6.2
6.9 7.0 6.5 6.5 6.5 6.6 6.5 6.7 7.0 6.9 6.5 6.4 6.2 5.8 5.7 5.6 5.6 6.2 5.7 5.6 5.6 5.7 5.8 5.7 5.7 5.7 5.6 5.2 4.7 4.3 4.1 4.0 3.9 4.1 4.5 4.7 4.8 5.3 5.5 5.4 5.1 5.1 5.2 5.5
7.3 7.4 6.5 6.6 6.1 4.1 7.0 7.0 6.7 6.7 6.4 6.3 5.7 5.8 5.8 5.6 5.5 6.0 5.9 5.9 5.9 5.8 5.8 5.8 5.8 5.8 5.9 5.8 5.6 5.3 4.9 4.4 4.0 3.8 3.8 4.1 4.1 4.5 5.2 5.3 5.4 5.2 5.2 5.1
6.9 7.1 7.1 7.0 7.1 7.1 7.2 7.1 7.0 6.6 6.7 6.5 6.4 6.3 5.9 5.7 5.8 5.8 5.9 5.9 5.9 5.9 5.9 5.9 5.9 5.9 5.9 5.9 5.8 5.7 5.5 5.4 4.8 4.4 4.0 3.6 3.5 3.5 3.8 4.5 5.0 4.9 5.1 5.6
7.0 7.1 7.0 6.9 6.7 6.3 7.4 7.2 6.8 7.0 6.9 6.9 6.8 6.5 6.1 6.2 6.1 6.1 6.1 6.1 6.0 5.9 6.0 6.0 6.0 6.0 6.0 5.7 5.5 5.4 5.3 5.1 4.9 4.8 4.6 4.3 3.9 3.6 3.7 3.8 3.9 4.5 4.5 4.7
6.6 6.8 7.0 7.0 7.3 7.4 7.2 7.3 7.2 7.1 7.0 6.6 6.5 6.4 6.3 6.2 6.1 6.1 6.1 6.0 6.0 5.9 5.9 6.0 5.9 5.8 5.9 5.9 5.8 5.4 5.3 5.1 4.9 4.8 4.7 4.7 4.5 4.2 4.0 3.6 3.8 4.3 4.7 4.6
6.6 6.7 6.5 6.6 6.7 6.9 7.1 7.3 7.3 7.1 6.9 6.7 6.7 6.6 6.5 6.4 6.4 6.3 6.3 6.3 6.3 6.3 6.4 6.4 6.3 6.2 6.1 6.3 6.1 6.0 5.8 5.6 5.4 5.2 4.9 4.6 4.4 4.4 4.4 4.3 4.4 4.4 4.6 5.1
6.7 6.7 6.7 6.5 6.5 7.1 7.1 7.4 7.2 6.9 6.8 6.8 6.8 6.7 6.7 6.7 6.7 6.9 6.8 6.9 6.9 6.8 6.8 6.7 6.6 6.5 6.4 6.6 6.5 6.5 6.3 6.0 5.8 5.7 5.4 5.1 4.9 4.7 4.4 4.4 4.3 4.4 4.7 4.7
7.2 7.2 6.8 6.7 7.1 7.5 7.1 7.0 7.1 6.8 7.0 7.1 7.2 7.3 7.4 7.3 7.2 7.1 7.2 7.4 7.3 7.2 7.0 6.9 7.0 6.9 6.8 6.6 6.3 6.3 6.3 6.2 6.0 5.8 5.8 5.8 5.6 5.4 5.1 4.8 4.7 4.7 4.6 4.8
Wind_Speed
1 4 8 15 14 2 3 5 6 8 8 4 22 19 15 15 16 23 24 21 14 15 17 6 8 9 8 7 10 14 14 16 13 12 12 9 13 12 10 11 21 23 23 23
3 7 15 2 4 7 7 10 14 8 10 4 12 20 20 22 20 20 23 19 10 11 14 12 8 8 8 8 9 10 15 15 16 13 12 7 11 9 10 8 14 21 22 23
9 6 4 7 5 8 5 6 10 10 6 6 7 8 4 7 5 7 13 8 9 7 11 10 9 8 9 9 8 10 12 14 14 15 10 3 5 3 7 9 9 13 22 23
6 3 6 4 6 8 9 10 11 6 4 4 5 9 5 8 10 2 7 7 8 7 4 5 9 13 10 9 6 6 7 10 11 13 12 17 12 10 9 11 10 11 20 20
7 5 4 4 8 7 10 1 2 2 3 3 3 4 6 3 6 7 4 5 2 2 7 7 14 12 13 11 9 5 2 3 6 10 12 12 13 9 3 7 13 12 10 14
7 3 4 7 4 6 3 3 5 4 2 5 10 8 1 4 4 1 8 2 3 5 11 15 13 9 10 10 8 7 4 3 1 4 6 10 12 4 5 7 10 9 9 9
1 4 3 2 1 2 2 4 4 4 1 7 3 3 5 5 5 5 6 9 8 9 8 16 19 18 15 14 11 7 8 5 4 1 3 5 7 5 9 10 8 11 9 8
3 17 8 6 7 7 7 8 5 6 6 12 2 9 7 8 2 6 2 4 7 20 17 17 17 16 18 20 17 14 11 8 6 4 2 3 4 3 4 5 5 8 9 11
5 10 1 5 4 7 4 6 5 2 3 2 8 12 14 5 5 7 11 17 16 14 14 16 18 19 18 19 21 18 12 9 6 5 5 5 4 5 5 5 4 5 7 7
3 7 7 3 2 3 7 3 1 1 3 9 6 5 13 6 9 14 15 13 14 15 16 14 13 13 14 15 15 16 15 13 11 9 5 5 6 6 6 5 10 9 9 8
3 5 7 3 6 8 1 4 4 3 4 5 7 8 4 8 12 8 5 7 9 11 11 11 12 12 13 14 15 14 15 16 16 14 11 8 8 7 6 8 9 9 8 10
6 5 7 13 7 3 3 7 8 5 7 5 6 8 14 13 11 9 9 11 11 10 11 10 10 10 12 12 12 14 15 13 14 14 13 11 10 7 8 10 10 9 11 10
2 4 5 5 3 3 3 3 6 5 2 11 11 5 11 10 13 11 10 10 9 10 13 12 10 10 10 9 10 10 12 11 12 14 14 15 15 12 10 10 10 9 11 12
2 4 13 15 13 4 7 6 4 4 7 11 9 8 11 5 12 9 7 7 7 8 9 9 10 13 13 11 10 9 10 9 10 12 11 11 14 15 14 12 10 8 10 11
5 10 9 13 13 4 8 10 16 16 16 11 15 20 22 1 3 6 4 6 7 6 8 11 11 10 11 12 13 13 11 11 12 11 10 12 11 11 12 12 11 10 8 11
2 4 1 4 11 14 17 17 18 17 17 14 17 21 7 3 2 4 6 3 9 9 9 8 7 7 10 11 12 13 13 14 14 11 11 10 12 13 13 13 12 11 10 11
3 3 8 20 7 4 7 14 14 13 18 12 16 3 1 2 4 4 5 5 6 7 9 8 8 7 8 10 9 10 11 11 11 11 12 11 11 15 15 14 14 11 11 12
9 8 4 8 4 19 7 4 0 5 2 5 6 3 5 6 4 6 8 6 6 6 8 9 7 9 9 9 9 9 9 10 11 10 10 12 14 16 15 15 15 14 10 11
17 11 5 8 14 13 16 4 4 4 5 5 5 3 4 4 3 6 9 9 6 7 9 9 6 8 9 10 9 7 10 10 10 11 11 13 13 15 14 15 15 15 13 12
9 13 10 2 4 6 3 2 1 3 4 6 6 5 5 1 3 10 7 6 8 8 7 9 8 9 9 11 7 7 10 11 12 11 12 13 13 14 15 16 14 14 12 14
3 2 12 11 8 6 5 5 3 5 5 4 5 8 7 5 10 12 5 7 6 7 9 7 7 10 12 8 4 9 11 12 11 9 12 13 12 14 15 16 15 14 13 13
4 4 3 2 2 8 5 2 5 5 5 6 6 9 8 10 12 13 14 11 8 8 11 11 9 12 13 11 7 12 15 13 8 9 13 13 13 12 12 15 16 15 13 13
4 6 4 9 6 4 5 6 11 12 9 12 5 9 8 10 11 13 11 7 7 9 10 10 10 14 16 14 7 13 16 11 10 11 15 16 16 14 13 13 16 13 13 10
6 6 9 13 11 13 14 16 13 8 12 10 8 8 7 10 12 9 8 9 10 11 11 9 8 13 18 16 12 11 13 10 10 13 17 16 16 17 15 11 11 12 12 10
9 4 6 13 15 13 16 16 17 15 11 8 6 2 3 3 6 6 10 11 12 13 12 11 12 14 18 17 18 15 14 12 14 15 17 17 14 15 15 13 12 12 14 14
11 17 10 14 16 14 19 17 7 6 4 3 3 3 1 2 7 8 11 11 12 15 14 15 16 16 19 18 20 18 16 15 16 17 15 13 12 12 12 13 14 24 28 32
Wind_Direction
48 124 203 219 207 264 285 242 253 260 258 310 286 279 278 273 263 272 277 276 277 275 278 305 275 261 249 234 212 206 197 200 185 189 186 194 202 199 198 197 193 188 187 184
59 218 227 119 168 227 250 271 272 278 268 183 270 284 281 265 270 256 267 282 284 288 315 311 307 296 274 258 230 211 205 195 195 196 197 201 198 211 207 199 197 192 187 185
200 218 166 193 195 248 212 231 264 257 326 253 309 276 231 274 253 254 262 279 277 281 298 313 318 291 281 281 255 224 220 200 198 194 179 121 112 114 184 198 191 194 188 184
232 272 194 167 214 190 265 234 254 275 353 260 23 295 208 257 268 342 295 302 302 319 317 311 306 339 336 301 303 241 215 205 197 185 190 195 201 191 199 197 200 198 195 191
249 179 181 176 221 150 230 180 243 168 199 344 323 291 258 214 276 260 242 193 209 324 270 288 356 349 339 342 340 329 197 196 211 203 196 201 211 218 164 178 180 187 192 198
242 325 204 221 221 198 115 81 48 49 67 279 206 193 285 187 207 301 349 355 84 357 11 360 9 342 335 358 351 18 26 107 105 217 230 221 227 212 173 175 180 184 179 180
305 225 279 184 193 34 90 70 322 325 14 236 343 254 237 247 267 17 305 322 11 12 348 13 5 0 3 8 13 22 35 15 359 234 275 268 258 234 205 190 193 177 178 190
203 287 184 175 204 193 187 171 201 223 263 275 92 258 266 230 298 355 29 258 16 19 13 18 12 16 12 10 13 21 24 359 353 318 287 287 275 266 264 253 211 195 203 200
203 265 240 212 167 166 164 189 209 266 53 317 252 273 295 191 73 18 10 35 44 39 26 18 13 16 15 18 22 14 10 358 353 325 306 276 252 236 228 222 217 218 211 206
350 305 212 287 78 257 183 153 154 333 230 240 260 248 245 14 46 42 37 22 14 16 22 24 27 21 17 14 18 19 17 13 353 335 306 282 263 250 240 210 208 200 203 192
149 196 266 358 200 202 143 243 230 287 173 231 251 244 220 63 85 92 57 38 21 22 18 16 15 18 16 15 15 10 9 10 6 3 346 307 283 256 242 224 223 226 205 193
210 203 227 264 258 241 235 232 187 220 219 217 246 248 280 95 70 84 52 34 28 23 12 9 8 9 13 13 9 7 1 2 360 352 350 346 315 273 252 245 238 219 214 204
287 215 294 267 265 51 214 258 251 276 226 244 264 265 360 29 48 51 59 42 31 17 3 358 4 7 5 6 6 2 355 356 352 349 348 345 348 336 300 269 252 227 226 215
23 256 246 256 269 323 261 221 260 238 261 274 253 288 298 2 345 22 27 24 13 1 350 346 351 353 353 356 357 356 348 352 346 345 343 341 342 337 332 311 283 250 230 230
210 258 250 262 267 299 285 289 276 272 273 266 282 286 278 255 352 327 310 332 333 356 353 341 338 341 342 346 347 348 345 344 344 336 338 334 334 333 332 321 299 272 240 237
280 270 226 254 278 281 277 271 270 274 275 266 262 262 78 126 253 277 298 311 329 338 331 332 314 332 332 337 340 334 337 340 341 333 324 331 329 334 333 325 319 309 280 256
244 281 270 271 284 306 261 247 260 260 262 261 260 270 191 252 263 278 307 273 284 308 312 306 315 327 321 322 322 319 323 330 322 322 330 330 331 332 330 328 320 310 293 271
243 249 257 274 29 266 288 48 307 232 77 122 109 151 217 237 243 275 276 236 258 281 299 295 303 306 303 303 307 310 316 317 318 323 329 330 333 325 320 325 320 309 289 262
216 234 256 250 253 281 292 235 188 178 252 184 166 227 255 277 333 269 240 225 251 260 265 256 253 267 279 283 289 295 308 311 314 316 319 322 323 316 315 312 310 309 300 286
212 225 238 154 228 225 251 208 48 110 281 216 183 238 245 148 250 271 230 236 243 252 268 280 281 278 277 278 277 279 296 301 301 308 314 316 312 305 306 305 297 296 290 280
6 358 225 235 246 283 228 223 142 95 270 219 194 229 221 214 242 262 230 246 244 246 261 261 270 277 282 282 258 274 285 283 290 300 308 304 299 297 300 299 298 290 289 287
194 187 205 72 24 273 185 139 165 212 251 239 218 233 245 266 266 257 262 266 272 289 296 296 290 287 289 291 275 281 281 289 285 293 295 293 295 295 295 292 291 288 282 278
280 192 203 197 212 220 202 219 271 278 253 270 236 263 232 255 263 265 263 274 286 282 278 289 287 290 290 289 273 274 283 293 293 291 295 296 295 290 285 283 288 288 276 265
242 181 242 263 246 248 267 274 275 265 251 263 261 255 262 258 266 277 292 293 290 289 288 291 281 284 288 294 290 282 293 299 295 290 292 294 292 294 291 284 279 280 275 268
239 176 251 257 260 268 264 256 259 269 275 276 291 286 296 302 299 301 293 295 296 298 303 304 297 293 291 299 298 301 302 303 293 288 290 291 287 285 286 277 275 276 276 262
238 251 247 256 259 251 264 271 266 238 253 51 11 339 21 325 300 304 295 302 304 305 311 308 302 301 299 301 299 301 302 299 293 290 290 287 287 285 283 284 285 273 274 275